CAPE
0 0 0 0 0 0 0 0 0 0 74 271 329 193 230 104 28 30 0 0 0 0 0 0 0 0 7 5 0 0 0 0 14 74 282 288 312 401 331 288 261 105 254 589
0 0 0 0 0 0 0 0 0 0 22 216 161 219 115 125 104 1 0 0 0 0 0 0 0 0 0 0 0 0 2 10 7 98 269 470 217 194 90 87 175 372 359 695
0 0 0 0 0 0 0 0 0 0 23 95 25 28 18 187 273 83 0 0 0 0 0 0 0 0 0 0 0 0 1 85 86 167 192 64 284 346 363 409 346 738 621 783
0 0 0 0 0 0 0 0 0 0 40 22 6 19 0 160 411 342 70 3 1 0 0 0 0 0 0 0 0 2 20 105 233 150 315 259 270 427 371 364 352 316 800 886
0 0 0 0 0 0 0 0 0 0 0 11 1 0 0 14 218 386 148 16 18 7 1 1 0 0 0 0 0 0 34 87 229 303 336 304 199 179 253 298 286 45 517 981
0 0 0 0 0 0 0 0 0 0 0 3 0 0 0 0 5 180 251 37 20 10 15 6 0 0 0 0 0 14 68 97 222 363 317 295 202 151 263 283 277 95 309 779
0 0 0 0 0 0 0 0 0 0 0 0 0 0 0 0 0 0 10 153 42 36 24 12 0 0 0 0 11 40 115 130 218 387 417 321 207 137 256 281 249 119 319 616
0 0 0 0 0 0 0 0 0 0 0 0 0 0 0 0 0 6 87 268 59 48 34 17 0 0 0 7 30 120 205 237 328 425 466 409 188 173 221 263 260 177 307 582
0 0 0 0 0 0 0 0 0 0 0 0 0 0 0 0 0 0 143 52 155 79 25 13 0 0 19 86 95 194 310 329 429 535 524 450 232 202 285 314 340 255 57 215
0 0 0 0 0 0 0 0 0 0 0 0 0 0 0 0 0 0 0 83 57 54 51 0 4 3 126 255 281 332 369 373 432 551 618 594 449 242 351 357 380 277 117 117
0 0 0 0 0 0 0 0 0 0 0 0 0 0 0 0 0 0 15 33 1 31 27 4 21 28 165 390 451 498 442 376 399 653 701 708 632 483 428 497 499 425 242 144
0 0 0 0 0 0 0 0 0 0 0 0 0 0 58 322 406 226 768 815 1279 985 28 125 93 161 411 605 603 669 733 570 494 699 924 882 804 736 740 725 655 551 424 290
0 0 0 0 0 0 0 0 0 0 0 0 0 0 0 613 737 568 287 182 439 1392 1326 145 257 257 590 760 817 770 875 1148 893 803 891 1145 1288 1043 970 996 868 653 610 476
0 0 0 0 0 0 0 0 0 0 0 0 0 0 0 710 711 373 247 124 136 460 1244 1545 813 344 486 852 817 811 863 958 965 1081 1093 1069 1166 1556 1327 1184 1028 843 777 657
0 0 0 0 0 0 0 0 0 0 0 0 0 0 0 914 697 400 136 87 8 0 0 254 1656 1639 862 664 559 696 965 1031 837 1105 1301 1431 1362 1260 1623 1365 1131 882 861 786
0 0 0 0 0 0 0 0 0 0 0 0 0 0 65 664 433 283 229 75 19 16 1 0 0 228 1716 2112 1920 2205 1052 1078 1186 1123 601 60 1311 1453 1381 1674 1293 1011 848 817
0 0 0 0 0 0 0 0 0 0 0 0 0 0 645 691 406 200 132 53 54 80 47 54 83 29 12 138 882 1884 1991 1461 1229 1329 1381 1139 1483 1646 1504 1480 1335 1159 926 745
0 0 0 0 0 0 0 0 0 0 212 77 74 328 522 590 375 203 96 81 59 59 119 360 364 434 510 196 813 1420 1433 1579 1553 1469 1546 1551 1764 1862 1620 1048 1125 1376 1105 727
0 0 0 0 0 0 0 0 0 30 7 29 166 240 430 8 75 395 152 2 6 6 3 83 445 532 1070 1116 1089 1015 1373 1590 1651 1794 1798 1762 1802 1982 409 26 4 1176 1058 682
0 0 0 0 0 0 0 0 0 0 0 34 86 20 244 119 736 414 361 322 186 38 76 1234 1514 1281 949 942 776 824 1307 1676 1913 1825 1930 2057 1993 2121 2022 1080 792 1210 817 516
0 0 0 0 0 0 0 0 0 0 0 0 77 54 24 139 382 99 270 589 830 932 2013 1989 1618 1422 1189 1005 809 655 1042 1518 1796 1899 1950 2216 2040 1910 2130 2012 1684 1075 350 6
0 0 0 0 0 0 0 0 0 0 0 0 0 0 0 0 0 0 334 370 278 1147 1309 2106 1716 1151 888 800 826 808 681 966 1484 1701 1528 1399 1621 1663 1300 995 468 248 142 18
0 0 0 0 0 0 0 0 0 0 0 0 0 0 0 0 0 0 0 0 0 0 2 273 1140 933 527 535 702 1001 895 718 1270 1394 1498 1370 1160 1175 1086 920 229 109 53 38
0 0 0 0 0 0 0 0 0 0 0 0 0 0 0 0 0 0 0 0 0 0 0 0 0 0 0 0 117 414 522 621 1005 1313 1235 1136 1082 1052 846 451 163 70 45 18
0 0 0 0 0 0 0 0 0 0 0 0 0 0 0 0 0 0 0 0 0 0 0 0 0 0 0 0 0 0 76 514 842 1104 1249 1226 1062 691 565 444 132 150 54 16
0 0 0 0 0 0 0 0 0 0 0 0 0 0 0 0 0 0 0 0 0 0 0 0 0 0 0 0 0 0 0 401 724 872 610 927 997 576 312 142 0 0 1 1
CIN
0 0 0 0 0 0 0 0 0 0 -230 -226 -278 -229 -409 -597 -696 -734 0 0 0 0 0 0 0 0 -304 -180 0 0 0 0 -269 -296 -200 -189 -179 -171 -170 -162 -162 -222 -188 -132
0 0 0 0 0 0 0 0 0 0 -238 -196 -239 -248 -328 -559 -613 -468 0 0 0 0 0 0 0 0 0 0 0 0 -104 -444 -263 -267 -227 -174 -212 -204 -229 -232 -195 -161 -179 -118
0 0 0 0 0 0 0 0 0 0 -240 -233 -314 -293 -371 -405 -549 -601 0 -447 0 0 0 0 0 0 0 0 0 0 -72 -462 -369 -271 -262 -283 -189 -178 -148 -149 -160 -114 -149 -121
0 0 0 0 0 0 0 0 0 0 -190 -173 -184 -200 0 -407 -424 -547 -603 -785 -761 -87 0 0 0 0 0 0 0 -597 -567 -471 -371 -349 -231 -228 -186 -135 -169 -176 -174 -140 -111 -108
0 0 0 0 0 0 0 0 0 0 0 -264 -162 0 0 -678 -322 -410 -620 -665 -751 -774 -48 -429 0 0 0 0 0 -43 -594 -544 -428 -361 -273 -232 -236 -225 -200 -182 -166 -251 -143 -94
0 0 0 0 0 0 0 0 0 0 0 -187 0 0 0 0 -425 -409 -570 -671 -687 -705 -716 -672 0 0 0 0 0 -687 -621 -602 -480 -433 -360 -296 -272 -241 -194 -206 -188 -241 -177 -100
0 0 0 0 0 0 0 0 0 0 0 0 0 0 0 0 0 0 -287 -656 -686 -629 -677 -702 0 0 0 0 -706 -696 -663 -603 -563 -462 -422 -385 -344 -316 -224 -223 -225 -244 -172 -137
0 0 0 0 0 0 0 0 0 0 0 0 0 0 0 0 0 -574 -553 -554 -687 -620 -636 -679 0 0 0 -644 -754 -665 -695 -613 -567 -515 -481 -448 -440 -376 -320 -282 -261 -265 -218 -175
0 0 0 0 0 0 0 0 0 0 0 0 0 0 0 0 0 0 -507 -692 -640 -629 -657 -736 -36 0 -750 -686 -756 -703 -696 -672 -619 -550 -505 -498 -499 -417 -351 -312 -289 -304 -392 -273
0 0 0 0 0 0 0 0 0 0 0 0 0 0 0 0 0 0 0 -458 -604 -719 -697 0 -742 -725 -696 -650 -790 -758 -720 -641 -632 -549 -508 -482 -492 -495 -408 -354 -331 -368 -413 -367
0 0 0 0 0 0 0 0 0 0 0 0 0 0 0 0 0 0 -553 -511 -201 -652 -789 -723 -735 -691 -649 -610 -729 -682 -743 -572 -592 -547 -507 -469 -480 -469 -451 -365 -346 -378 -419 -418
0 0 0 0 0 0 0 0 0 0 0 0 0 0 -622 -651 -723 -772 -743 -810 -731 -755 -760 -691 -694 -732 -737 -661 -718 -685 -641 -656 -578 -542 -497 -470 -458 -461 -414 -386 -378 -381 -395 -410
0 0 0 0 0 0 0 0 0 0 0 0 0 0 0 -621 -625 -807 -928 -990 -946 -731 -792 -833 -744 -769 -769 -727 -851 -791 -709 -606 -526 -498 -431 -383 -356 -422 -411 -366 -371 -399 -372 -405
0 0 0 0 0 0 0 0 0 0 0 0 0 0 0 -464 -663 -802 -834 -1010 -980 -864 -724 -661 -833 -819 -786 -749 -784 -812 -686 -701 -598 -501 -490 -460 -420 -330 -349 -385 -377 -388 -369 -373
0 0 0 0 0 0 0 0 0 0 0 0 0 0 0 -430 -614 -757 -865 -960 -915 0 -35 -953 -567 -584 -744 -748 -709 -707 -594 -514 -676 -572 -467 -481 -479 -378 -252 -272 -335 -402 -391 -395
0 0 0 0 0 0 0 0 0 0 0 0 0 0 -523 -533 -666 -662 -717 -810 -815 -918 -841 0 0 -883 -471 -351 -315 -264 -525 -530 -546 -600 -704 -1145 -592 -442 -341 -254 -304 -326 -369 -356
0 0 0 0 0 0 0 0 0 0 0 0 0 0 -410 -381 -475 -582 -663 -809 -795 -772 -889 -935 -933 -1051 -877 -765 -477 -273 -371 -450 -459 -418 -467 -557 -468 -427 -367 -353 -340 -318 -363 -323
0 0 0 0 0 0 0 0 0 0 -145 -257 -206 -267 -312 -303 -400 -536 -717 -733 -753 -931 -826 -750 -827 -830 -792 -675 -657 -542 -573 -488 -420 -444 -432 -395 -348 -305 -361 -531 -491 -417 -337 -416
0 0 0 0 0 0 0 0 0 -160 -25 -310 -194 -224 -293 -453 -455 -342 -613 -442 -531 -854 -152 -856 -703 -712 -579 -610 -669 -697 -590 -548 -512 -453 -373 -299 -258 -228 -662 -350 -691 -418 -392 -378
0 0 0 0 0 0 0 0 0 0 0 -184 -271 -285 -252 -347 -111 -172 -384 -538 -602 -704 -737 -442 -397 -445 -523 -564 -683 -640 -513 -402 -337 -347 -346 -221 -124 -99 -89 -345 -381 -302 -271 -261
0 0 0 0 0 0 0 0 0 0 0 0 -156 -272 -349 -253 -184 -167 -333 -312 -341 -358 -235 -265 -345 -367 -415 -487 -558 -468 -443 -310 -261 -282 -286 -178 -147 -133 -86 -40 -66 -154 -229 -35
0 0 0 0 0 0 0 0 0 0 0 0 0 0 0 0 0 0 -367 -320 -243 -263 -239 -179 -229 -297 -359 -415 -418 -365 -380 -388 -268 -216 -278 -302 -220 -192 -198 -222 -328 -343 -411 -353
0 0 0 0 0 0 0 0 0 0 0 0 0 0 0 0 0 0 0 0 0 0 -6 -452 -214 -250 -360 -386 -375 -260 -272 -420 -244 -188 -178 -201 -244 -212 -214 -248 -452 -495 -593 -587
0 0 0 0 0 0 0 0 0 0 0 0 0 0 0 0 0 0 0 0 0 0 0 0 0 0 0 0 -463 -388 -359 -351 -251 -161 -159 -168 -162 -183 -229 -360 -454 -587 -581 -611
0 0 0 0 0 0 0 0 0 0 0 0 0 0 0 0 0 0 0 0 0 0 0 0 0 0 0 0 0 0 -373 -320 -220 -170 -135 -140 -139 -253 -311 -290 -489 -381 -468 -528
0 0 0 0 0 0 0 0 0 0 0 0 0 0 0 0 0 0 0 0 0 0 0 0 0 0 0 0 0 0 0 -364 -237 -175 -223 -137 -120 -233 -368 -436 0 0 0 0
Wind_Speed
2 4 7 9 7 3 1 2 7 9 6 3 8 6 9 12 11 12 13 14 14 17 17 15 14 12 9 8 10 12 11 8 8 4 4 2 3 3 2 3 5 5 5 5
7 3 7 3 3 4 3 4 8 10 6 4 2 12 4 12 16 18 18 17 17 14 11 14 13 12 13 12 12 12 13 11 9 7 3 3 3 2 1 2 4 4 5 5
6 6 1 3 1 2 4 5 5 8 2 4 3 9 4 3 7 12 18 20 18 20 18 15 14 15 13 13 15 15 15 14 11 8 6 3 3 3 2 3 3 4 5 5
4 4 3 2 4 6 4 7 9 2 2 5 3 8 8 2 8 9 18 19 19 19 16 14 14 15 15 16 11 13 12 14 12 12 10 6 5 4 4 4 3 4 5 5
7 3 4 4 7 8 12 2 1 3 2 4 1 2 10 4 6 10 12 19 20 20 19 18 17 18 14 14 13 13 12 11 11 14 12 9 5 3 2 2 5 4 3 4
6 2 3 6 3 7 1 5 6 6 4 2 5 5 8 4 6 7 5 15 19 18 18 16 14 12 14 11 11 11 12 13 12 13 12 13 11 7 4 3 4 3 2 3
5 3 5 1 4 3 7 7 3 4 5 7 3 5 12 5 9 8 12 13 17 18 16 14 14 14 12 14 13 12 13 12 12 13 13 12 11 10 9 6 5 5 4 3
3 7 5 7 1 4 1 7 8 7 4 5 4 6 6 4 9 8 5 8 12 17 14 15 15 16 15 16 15 15 15 13 12 13 13 11 9 7 6 7 5 6 6 6
3 4 6 1 3 3 2 1 3 8 4 4 5 8 10 6 8 10 6 4 10 14 15 17 15 16 15 16 18 17 15 14 14 15 11 11 9 9 9 9 8 6 5 5
4 1 2 7 4 5 6 2 3 5 4 1 5 5 7 15 21 12 9 3 2 5 7 7 12 14 15 14 14 15 15 17 16 15 12 11 12 11 9 8 10 9 8 8
4 3 7 2 3 2 6 5 6 6 3 6 2 7 4 7 10 10 7 5 1 6 8 7 8 6 6 8 12 12 12 13 12 13 12 11 11 11 10 10 10 11 9 10
3 4 2 6 4 2 2 2 4 6 2 1 3 8 1 2 7 7 7 8 7 5 4 10 9 9 10 10 9 10 10 11 13 12 12 13 11 10 11 11 11 9 10 10
3 3 4 11 8 6 5 3 4 4 3 3 5 8 1 7 6 8 9 9 8 9 8 3 7 10 12 14 14 16 14 12 7 6 8 9 11 11 13 12 11 10 10 11
8 3 6 7 8 4 4 3 2 4 3 2 7 8 6 9 7 8 9 8 8 8 8 6 7 4 5 8 10 11 11 10 7 10 12 10 11 12 12 12 12 12 12 12
5 1 4 5 6 3 4 6 3 4 5 5 6 6 0 5 5 5 5 6 10 10 10 8 7 5 3 4 4 2 5 9 9 9 9 18 13 10 10 10 11 11 13 13
2 2 4 4 4 6 5 9 7 7 3 7 5 7 3 1 3 4 4 5 5 6 7 8 6 7 7 7 9 9 1 7 10 14 15 7 11 11 11 11 11 12 13 12
3 6 3 5 3 4 6 9 6 3 4 4 4 4 4 2 4 4 5 5 6 5 4 3 3 3 5 2 9 13 5 4 10 14 15 11 9 14 16 13 13 15 16 13
7 6 4 4 2 1 9 3 3 5 2 4 4 4 6 4 4 6 5 5 7 4 2 5 3 4 4 7 9 8 6 6 7 11 16 14 16 19 17 15 18 19 16 19
2 6 3 4 4 6 3 1 2 4 7 5 4 2 4 4 2 5 6 6 6 5 5 5 5 5 7 7 7 6 7 7 7 9 13 14 15 17 16 16 12 13 16 17
6 4 5 3 4 7 7 3 3 2 5 6 6 6 6 4 2 5 6 6 8 8 6 6 6 5 2 3 4 8 11 10 10 9 8 7 11 16 17 18 17 16 16 14
3 3 4 2 4 7 7 6 2 5 8 1 2 2 5 6 7 3 4 6 4 4 4 3 5 5 6 7 8 8 7 8 10 11 11 3 7 11 14 13 10 6 5 2
4 3 4 3 2 5 2 3 1 6 4 1 2 2 3 8 9 6 6 4 4 5 6 4 2 4 6 6 4 6 6 5 7 8 9 9 4 5 6 10 7 9 7 8
4 6 4 8 7 5 4 2 1 2 2 2 1 3 4 6 5 4 4 5 5 6 5 4 4 6 6 6 4 5 5 5 5 5 6 5 5 2 7 10 8 8 9 10
3 2 1 2 3 5 4 2 3 3 3 3 4 3 3 5 7 7 5 5 5 3 4 2 4 5 7 5 6 6 6 5 4 3 3 3 4 5 1 2 2 3 6 6
5 1 3 6 10 4 10 7 8 6 5 5 7 6 8 6 8 7 6 5 3 4 3 4 5 6 7 7 8 8 6 4 4 5 5 3 3 3 3 3 4 8 8 8
5 8 5 9 14 6 9 5 5 7 7 9 8 7 7 6 9 6 7 3 2 3 3 3 4 5 7 7 7 9 7 5 4 6 4 4 3 3 3 3 2 7 6 8
Wind_Direction
38 96 225 216 196 190 322 221 272 275 207 229 232 268 200 179 187 186 178 190 190 204 206 205 213 212 190 178 172 183 178 171 158 158 157 164 191 182 193 187 187 177 179 168
24 230 239 203 170 173 188 259 255 283 200 192 305 254 215 185 211 189 181 190 203 207 194 208 209 206 198 191 190 187 191 174 181 181 159 154 155 203 127 153 212 202 175 163
155 238 108 200 240 210 225 206 237 210 28 223 11 307 281 212 209 190 195 197 198 199 200 202 203 205 202 195 191 190 190 180 179 169 132 90 92 82 135 198 191 198 179 167
228 282 246 172 224 159 282 198 251 245 60 237 78 283 313 326 251 210 194 194 199 200 206 207 204 203 204 210 189 190 186 181 175 160 170 161 174 165 194 184 160 180 173 169
253 242 231 231 221 161 235 122 106 176 138 21 215 43 267 347 295 252 206 197 198 200 196 197 200 206 205 198 189 191 181 178 172 173 177 178 173 175 164 159 164 151 201 167
235 269 215 223 276 182 4 94 56 52 78 58 243 139 287 260 249 289 198 201 193 197 200 201 200 191 199 183 177 177 182 184 176 178 178 182 184 170 174 168 174 163 171 187
330 288 305 297 338 26 73 58 349 358 10 216 34 70 245 260 285 249 264 203 191 195 196 191 185 182 185 181 178 178 178 189 181 182 184 186 187 177 188 183 172 166 171 174
59 345 1 341 143 232 107 151 156 184 200 258 153 232 249 226 319 326 285 179 181 189 193 197 191 187 185 182 178 180 184 184 185 186 194 191 175 183 186 181 175 189 192 190
94 291 318 327 317 115 313 30 180 101 11 57 294 297 312 315 359 354 357 128 178 187 191 194 195 188 182 181 182 182 183 187 186 193 191 188 178 178 188 186 183 184 181 182
204 65 321 292 23 10 85 166 23 360 129 172 307 294 254 334 321 330 320 257 159 216 226 209 193 190 190 183 177 174 183 190 189 190 192 193 187 189 186 181 190 190 191 176
120 102 288 12 53 247 355 14 52 115 93 150 167 266 223 287 303 321 350 26 35 215 204 201 202 185 194 176 171 177 181 192 195 192 194 191 192 189 182 194 201 197 184 181
32 127 245 236 292 297 345 60 115 109 249 98 142 270 255 355 339 345 353 7 357 351 223 185 174 155 143 151 160 186 197 196 193 193 190 196 192 184 190 198 203 197 195 185
165 17 16 352 354 356 43 336 99 96 81 200 130 263 298 27 26 6 4 3 357 2 2 76 143 156 164 172 173 184 183 187 166 170 200 203 200 192 199 206 200 194 198 191
85 110 159 179 211 183 308 311 77 106 90 208 230 286 335 337 3 358 357 360 17 24 18 54 70 107 170 187 191 198 186 163 151 181 185 200 209 207 208 202 201 199 197 194
93 216 189 247 230 218 236 239 274 232 200 165 249 234 353 291 320 316 309 360 28 15 19 17 29 26 37 23 355 291 131 161 200 181 174 211 195 207 211 214 212 207 200 197
31 241 176 272 269 226 264 254 227 238 210 265 275 278 173 271 302 303 326 346 26 6 353 356 3 25 47 56 35 333 151 217 195 207 214 219 184 185 204 205 203 203 202 207
159 140 107 265 329 327 300 232 195 188 185 198 189 237 185 207 253 262 288 306 313 330 338 12 359 19 354 340 128 246 221 179 206 215 235 238 212 192 192 191 190 206 201 198
151 127 133 225 5 239 240 285 232 218 233 233 241 176 189 187 229 270 256 269 288 289 334 320 307 298 215 190 213 231 242 212 202 224 220 209 202 208 212 213 209 203 200 199
168 135 133 161 181 285 298 75 102 167 259 197 243 200 162 138 342 284 225 225 247 259 262 256 269 283 307 322 326 323 326 314 288 261 233 216 206 208 215 228 238 209 204 207
76 72 118 118 157 199 236 276 227 148 264 213 201 203 188 129 116 256 202 198 226 228 228 226 227 206 213 318 340 16 4 354 347 325 276 203 193 203 215 228 240 224 226 228
360 23 175 164 231 292 260 289 322 142 238 19 154 202 171 193 206 258 230 212 228 237 257 328 6 353 330 339 352 0 350 358 332 328 328 242 203 205 211 215 223 216 190 136
195 154 212 120 179 265 349 328 243 223 288 276 23 320 250 254 284 283 282 287 287 282 293 275 283 293 299 294 308 331 334 319 330 337 344 333 256 198 177 151 151 164 139 112
276 188 195 174 217 239 271 188 306 196 254 348 322 308 287 278 261 265 258 266 268 294 311 326 297 289 273 268 264 302 297 328 329 335 336 331 313 263 164 166 158 162 167 170
300 149 188 12 268 236 228 262 220 235 232 278 278 289 295 285 294 271 253 245 249 266 282 255 280 281 293 307 288 247 288 296 300 305 301 298 285 271 216 76 127 206 185 178
205 97 215 261 276 257 270 243 228 251 262 274 268 247 259 258 267 249 275 286 287 296 325 341 327 309 293 299 299 299 275 244 280 299 288 265 233 236 222 191 188 202 198 194
177 206 185 244 263 207 260 248 267 244 252 265 258 278 266 211 249 272 263 246 248 317 328 333 293 278 290 300 298 295 285 235 226 277 280 269 255 217 205 187 197 16 350 269